Regional Weather Roundup
Issued by NWS

Home | Current Version | Previous Version | Graphics & Text | Print | Product List | Glossary On
Versions: 1 2 3 4 5 6 7 8 9 10 11 12 13 14 15 16 17 18 19 20 21 22 23 24 25 26 27 28 29 30 31 32 33 34 35 36 37 38 39 40 41 42 43 44 45 46 47 48 49 50
289
ASUS44 KJAN 190403
RWRMS

MISSISSIPPI HOURLY WEATHER ROUNDUP
NATIONAL WEATHER SERVICE JACKSON MS
1000 PM CST THU DEC 18 2014

NOTE: "FAIR: INDICATES FEW OR NO CLOUDS BELOW 12,000 FEET WITH NO
SIGNIFICANT WEATHER AND/OR OBSTRUCTIONS TO VISIBILITY.

MSZ001>002-007>008-010>013-018>021-025>028-034>036-190500-
NORTHWEST MISSISSIPPI

CITY           SKY/WX    TMP DP  RH WIND       PRES   REMARKS
CLARKSDALE     CLOUDY    45  41  87 NE9       30.24R
CLEVELAND      CLOUDY    47  44  90 CALM      30.23R
GREENWOOD      CLOUDY    49  40  71 CALM      30.21R
GREENVILLE     CLOUDY    48  44  86 N7        30.21R
GRENADA        CLOUDY    45  37  76 CALM      30.23R
OLIVE BRANCH   CLOUDY    41  39  93 CALM      30.24S
OXFORD         CLOUDY    41  37  87 NE5       30.23S
TUNICA         MOCLDY    43  39  87 N7        30.25S
$$

MSZ003>006-009-014>017-022>024-029>033-037>039-190500-
NORTHEAST MISSISSIPPI

CITY           SKY/WX    TMP DP  RH WIND       PRES   REMARKS
COLUMBUS AFB   PTCLDY    45  37  76 CALM      30.21R
CORINTH        CLOUDY    43  37  81 CALM      30.22S
GOLDN TRIANGLE PTCLDY    41  36  81 N3        30.20S
STARKVILLE     CLOUDY    45  37  76 CALM      30.21S
TUPELO         CLOUDY    45  38  76 NE6       30.22R
$$

MSZ040-058-190500-
CENTRAL MISSISSIPPI

CITY           SKY/WX    TMP DP  RH WIND       PRES   REMARKS
JACKSON INTL   CLOUDY    46  44  93 CALM      30.20R
JACKSON HAWKNS CLOUDY    47  44  90 CALM      30.20R
MERIDIAN KEY   CLOUDY    45  40  82 CALM      30.20R
MERIDIAN NAS   CLOUDY    41  38  89 CALM      30.20R
RAYMOND        CLOUDY    45  41  87 CALM      30.19S
VICKSBURG      CLOUDY    45  43  93 E3        30.19R
$$

MSZ059>079-190500-
SOUTH MISSISSIPPI

CITY           SKY/WX    TMP DP  RH WIND       PRES   REMARKS
HATTIESBURG    CLOUDY    51  49  92 CALM      30.20R
MCCOMB         CLOUDY    51  49  92 CALM      30.16S
NATCHEZ        CLOUDY    50  46  87 NE3       30.17S
PINE BELT      CLOUDY    48  46  93 N5        30.20R
$$

MSZ080>082-190500-
COASTAL MISSISSIPPI

CITY           SKY/WX    TMP DP  RH WIND       PRES   REMARKS
BILOXI         CLOUDY    59  49  68 E7        30.15S
PASCAGOULA     CLOUDY    58  46  64 NE3       30.16S
GULFPORT       CLOUDY    59  49  69 E5        30.14F
$$



USA.gov is the U.S. government's official web portal to all federal, state and local government web resources and services.